Tracking 27420 objects as of 10-Jun-2023
HD Live streaming from Space Station
objects crossing your sky now

STARLINK-6258

Track STARLINK-6258 now!
10-day predictions
STARLINK-6258 is classified as:


NORAD ID: 56413
Int'l Code: 2023-061AR
Perigee: 374.6 km
Apogee: 376.6 km
Inclination: 43.0 °
Period: 91.9 minutes
Semi major axis: 6746 km
RCS: Unknown
Launch date: May 4, 2023
Source: United States (US)
Launch site: AIR FORCE EASTERN TEST RANGE (AFETR)
Your satellite tracking list
Your tracking list is empty




NASA's NSSDC Master Catalog

Two Line Element Set (TLE):
1 56413U 23061AR  23161.91667824 -.00962902  00000-0 -98377-2 0  9993
2 56413  42.9962 244.6689 0001455 272.8119 266.5601 15.66667882  6217
Source of the keplerian elements: AFSPC